When you browse on this site, cookies collect data to enhance your experience and personalize the content and advertising you see.
Visit our Privacy Policy to learn more. By continuing to use the site, you agree to this use of cookies and data.
  • In Österreich
  • Länderverzeichnis
  • Für 7 Tage
  • Wassertemperatur
  • Satellitenkarten
  • Wetterkarte
  • News
  • Widgets
  • user-avatar
    Anmelden

    Stündliche Wetter Gulevichi

    Heute, 21 Juli, Sonntag

    Zeit Temperatur Niederschläge Wind Luftdruck Luftfeuchtigkeit
    00:00 +18°C° 0 mm 1 m/S 752 mmHg 87%
    01:00 +18°C° 0 mm 1 m/S 752 mmHg 88%
    02:00 +15°C° 0 mm 0 m/S 753 mmHg 89%
    03:00 +15°C° 0 mm 0 m/S 752 mmHg 89%
    04:00 +16°C° 0 mm 1 m/S 752 mmHg 88%
    05:00 +18°C° 0 mm 1 m/S 752 mmHg 88%
    06:00 +19°C° 0 mm 1 m/S 752 mmHg 83%
    07:00 +21°C° 0 mm 1 m/S 752 mmHg 77%
    08:00 +23°C° 0 mm 1 m/S 752 mmHg 72%
    09:00 +25°C° 0 mm 1 m/S 752 mmHg 65%
    10:00 +26°C° 0 mm 1 m/S 753 mmHg 59%
    11:00 +28°C° 0 mm 1 m/S 753 mmHg 53%
    12:00 +28°C° 0 mm 1 m/S 752 mmHg 50%
    13:00 +29°C° 0 mm 1 m/S 752 mmHg 47%
    14:00 +29°C° 0 mm 1 m/S 752 mmHg 45%
    15:00 +29°C° 0 mm 1 m/S 752 mmHg 46%
    16:00 +29°C° 0 mm 1 m/S 751 mmHg 48%
    17:00 +29°C° 0 mm 1 m/S 751 mmHg 50%
    18:00 +27°C° 0 mm 1 m/S 751 mmHg 56%
    19:00 +25°C° 0 mm 1 m/S 751 mmHg 62%
    20:00 +23°C° 0 mm 2 m/S 751 mmHg 68%
    21:00 +23°C° 0.2 mm 2 m/S 751 mmHg 73%
    22:00 +21°C° 0.2 mm 2 m/S 751 mmHg 78%
    23:00 +20°C° 0.2 mm 2 m/S 751 mmHg 83%

    Morgen, 22 Juli, Montag

    Zeit Temperatur Niederschläge Wind Luftdruck Luftfeuchtigkeit
    00:00 +19°C° 0.5 mm 2 m/S 751 mmHg 85%
    01:00 +20°C° 0.5 mm 1 m/S 751 mmHg 88%
    02:00 +19°C° 0.5 mm 1 m/S 751 mmHg 91%
    03:00 +19°C° 0.1 mm 1 m/S 750 mmHg 91%
    04:00 +18°C° 0.1 mm 2 m/S 750 mmHg 92%
    05:00 +18°C° 0.1 mm 2 m/S 750 mmHg 92%
    06:00 +18°C° 1.2 mm 2 m/S 750 mmHg 93%
    07:00 +19°C° 1.2 mm 2 m/S 750 mmHg 94%
    08:00 +19°C° 1.2 mm 2 m/S 750 mmHg 95%
    09:00 +20°C° 0.7 mm 2 m/S 750 mmHg 93%
    10:00 +21°C° 0.7 mm 1 m/S 750 mmHg 90%
    11:00 +22°C° 0.7 mm 1 m/S 750 mmHg 87%
    12:00 +22°C° 1.1 mm 3 m/S 750 mmHg 85%
    13:00 +22°C° 1.1 mm 4 m/S 750 mmHg 83%
    14:00 +23°C° 1.1 mm 6 m/S 750 mmHg 81%
    15:00 +23°C° 0.3 mm 6 m/S 749 mmHg 80%
    16:00 +22°C° 0.3 mm 5 m/S 749 mmHg 79%
    17:00 +22°C° 0.3 mm 5 m/S 749 mmHg 78%
    18:00 +21°C° 0 mm 5 m/S 749 mmHg 80%
    19:00 +20°C° 0 mm 4 m/S 749 mmHg 81%
    20:00 +19°C° 0 mm 4 m/S 749 mmHg 83%
    21:00 +19°C° 0 mm 4 m/S 749 mmHg 86%
    22:00 +18°C° 0 mm 4 m/S 749 mmHg 89%
    23:00 +17°C° 0 mm 4 m/S 749 mmHg 92%

    übermorgen, 23 Juli, Dienstag

    Zeit Temperatur Niederschläge Wind Luftdruck Luftfeuchtigkeit
    00:00 +17°C° 0 mm 4 m/S 749 mmHg 93%
    01:00 +17°C° 0 mm 4 m/S 749 mmHg 95%
    02:00 +15°C° 0 mm 4 m/S 749 mmHg 96%
    03:00 +15°C° 0 mm 4 m/S 749 mmHg 94%
    04:00 +15°C° 0 mm 5 m/S 749 mmHg 92%
    05:00 +16°C° 0 mm 5 m/S 749 mmHg 90%
    06:00 +16°C° 0 mm 5 m/S 749 mmHg 89%
    07:00 +17°C° 0 mm 4 m/S 749 mmHg 88%
    08:00 +17°C° 0 mm 4 m/S 749 mmHg 87%
    09:00 +18°C° 0 mm 4 m/S 749 mmHg 84%
    10:00 +19°C° 0 mm 4 m/S 749 mmHg 81%
    11:00 +20°C° 0 mm 4 m/S 749 mmHg 77%
    12:00 +20°C° 0.1 mm 4 m/S 749 mmHg 77%
    13:00 +20°C° 0.1 mm 5 m/S 749 mmHg 76%
    14:00 +21°C° 0.1 mm 5 m/S 749 mmHg 75%
    15:00 +21°C° 0.1 mm 5 m/S 748 mmHg 75%
    16:00 +21°C° 0.1 mm 5 m/S 748 mmHg 74%
    17:00 +21°C° 0.1 mm 5 m/S 748 mmHg 73%
    18:00 +20°C° 0 mm 4 m/S 748 mmHg 80%
    19:00 +19°C° 0 mm 3 m/S 748 mmHg 86%
    20:00 +18°C° 0 mm 2 m/S 748 mmHg 92%
    21:00 +17°C° 0 mm 2 m/S 748 mmHg 94%
    22:00 +17°C° 0 mm 2 m/S 748 mmHg 95%
    23:00 +16°C° 0 mm 2 m/S 748 mmHg 97%

    24 Juli, Mittwoch

    Zeit Temperatur Niederschläge Wind Luftdruck Luftfeuchtigkeit
    00:00 +16°C° 0 mm 2 m/S 748 mmHg 97%
    01:00 +16°C° 0 mm 2 m/S 748 mmHg 97%
    02:00 +16°C° 0 mm 3 m/S 748 mmHg 98%
    03:00 +16°C° 0 mm 3 m/S 748 mmHg 98%
    04:00 +16°C° 0 mm 3 m/S 749 mmHg 97%
    05:00 +14°C° 0 mm 3 m/S 749 mmHg 97%
    06:00 +16°C° 0 mm 3 m/S 749 mmHg 94%
    07:00 +17°C° 0 mm 4 m/S 749 mmHg 91%
    08:00 +18°C° 0 mm 4 m/S 749 mmHg 88%
    09:00 +20°C° 0 mm 4 m/S 750 mmHg 80%
    10:00 +22°C° 0 mm 5 m/S 750 mmHg 71%
    11:00 +25°C° 0 mm 5 m/S 750 mmHg 63%
    12:00 +25°C° 0.2 mm 5 m/S 750 mmHg 63%
    13:00 +25°C° 0.2 mm 5 m/S 750 mmHg 64%
    14:00 +24°C° 0.2 mm 6 m/S 750 mmHg 64%
    15:00 +25°C° 0.1 mm 5 m/S 750 mmHg 64%
    16:00 +26°C° 0.1 mm 5 m/S 750 mmHg 63%
    17:00 +26°C° 0.1 mm 5 m/S 750 mmHg 63%
    18:00 +23°C° 0 mm 4 m/S 750 mmHg 69%
    19:00 +21°C° 0 mm 3 m/S 750 mmHg 75%
    20:00 +20°C° 0 mm 3 m/S 750 mmHg 81%
    21:00 +19°C° 0 mm 3 m/S 751 mmHg 83%
    22:00 +18°C° 0 mm 3 m/S 751 mmHg 86%
    23:00 +18°C° 0 mm 3 m/S 751 mmHg 88%

    25 Juli, Donnerstag

    Zeit Temperatur Niederschläge Wind Luftdruck Luftfeuchtigkeit
    00:00 +17°C° 0 mm 3 m/S 751 mmHg 89%
    01:00 +17°C° 0 mm 3 m/S 751 mmHg 89%
    02:00 +17°C° 0 mm 3 m/S 751 mmHg 89%
    03:00 +16°C° 0 mm 3 m/S 751 mmHg 89%
    04:00 +16°C° 0 mm 3 m/S 751 mmHg 90%
    05:00 +16°C° 0 mm 3 m/S 751 mmHg 90%
    06:00 +17°C° 0 mm 3 m/S 751 mmHg 85%
    07:00 +19°C° 0 mm 4 m/S 752 mmHg 79%
    08:00 +21°C° 0 mm 4 m/S 752 mmHg 73%
    09:00 +22°C° 0 mm 5 m/S 752 mmHg 66%
    10:00 +25°C° 0 mm 5 m/S 752 mmHg 60%
    11:00 +26°C° 0 mm 6 m/S 752 mmHg 54%
    12:00 +27°C° 0 mm 6 m/S 752 mmHg 53%
    13:00 +27°C° 0 mm 6 m/S 751 mmHg 52%
    14:00 +27°C° 0 mm 6 m/S 751 mmHg 51%
    15:00 +27°C° 0 mm 6 m/S 751 mmHg 53%
    16:00 +27°C° 0 mm 5 m/S 751 mmHg 55%
    17:00 +27°C° 0 mm 5 m/S 751 mmHg 57%
    18:00 +25°C° 0 mm 5 m/S 751 mmHg 62%
    19:00 +22°C° 0 mm 4 m/S 751 mmHg 68%
    20:00 +21°C° 0 mm 3 m/S 751 mmHg 74%
    21:00 +20°C° 0 mm 3 m/S 751 mmHg 76%
    22:00 +19°C° 0 mm 3 m/S 752 mmHg 78%
    23:00 +18°C° 0 mm 3 m/S 752 mmHg 81%

    26 Juli, Freitag

    Zeit Temperatur Niederschläge Wind Luftdruck Luftfeuchtigkeit
    00:00 +18°C° 0 mm 3 m/S 752 mmHg 84%
    01:00 +18°C° 0 mm 3 m/S 752 mmHg 87%
    02:00 +17°C° 0 mm 3 m/S 752 mmHg 91%
    03:00 +17°C° 0 mm 3 m/S 752 mmHg 92%
    04:00 +17°C° 0 mm 3 m/S 752 mmHg 93%
    05:00 +17°C° 0 mm 3 m/S 752 mmHg 94%
    06:00 +19°C° 0 mm 3 m/S 752 mmHg 88%
    07:00 +20°C° 0 mm 3 m/S 752 mmHg 82%
    08:00 +22°C° 0 mm 3 m/S 752 mmHg 76%
    09:00 +25°C° 0 mm 3 m/S 752 mmHg 69%
    10:00 +26°C° 0 mm 3 m/S 752 mmHg 62%
    11:00 +28°C° 0 mm 3 m/S 751 mmHg 55%
    12:00 +28°C° 0 mm 3 m/S 751 mmHg 54%
    13:00 +29°C° 0 mm 3 m/S 751 mmHg 53%
    14:00 +29°C° 0 mm 4 m/S 750 mmHg 53%
    15:00 +28°C° 0.1 mm 4 m/S 750 mmHg 56%
    16:00 +27°C° 0.1 mm 4 m/S 750 mmHg 60%
    17:00 +27°C° 0.1 mm 5 m/S 750 mmHg 63%
    18:00 +25°C° 0 mm 4 m/S 750 mmHg 67%
    19:00 +22°C° 0 mm 4 m/S 750 mmHg 71%
    20:00 +20°C° 0 mm 3 m/S 750 mmHg 75%
    21:00 +19°C° 0 mm 3 m/S 750 mmHg 79%
    22:00 +18°C° 0 mm 3 m/S 750 mmHg 82%
    23:00 +17°C° 0 mm 3 m/S 750 mmHg 86%
    Mehr zeigen